FW4070 Weather Reports


Display with metric or nautical units.
time (UTC)temp
F
wind
direction
speed
MPH
gust
MPH
rain 1hr
in
rain 24hr
in
rain mn
in
humidity
%
barometer
mb
20260831191541 77 242 1.0 5.0 0.00 0.27 0.15 82 1016.7
20260831191029 77 360 1.0 5.0 0.00 0.27 0.15 81 1016.8
20260831190535 77 249 2.0 5.0 0.00 0.27 0.15 81 1016.8
20260831190019 77 237 2.0 6.0 0.00 0.27 0.15 80 1016.9
20260831185523 77 360 3.0 6.0 0.00 0.27 0.15 79 1016.8
20260831185034 78 360 2.0 6.0 0.00 0.27 0.15 78 1016.9
20260831184602 78 253 3.0 6.0 0.00 0.27 0.15 77 1016.9
20260831184045 78 360 3.0 6.0 0.00 0.27 0.15 77 1016.8
20260831183551 78 261 3.0 6.0 0.00 0.27 0.15 76 1016.9
20260831183103 78 223 2.0 7.0 0.00 0.27 0.15 77 1016.8
20260831182539 78 221 1.0 7.0 0.00 0.27 0.15 76 1016.9
20260831182003 79 236 3.0 5.0 0.00 0.27 0.15 75 1016.8
20260831181550 79 246 1.0 6.0 0.00 0.27 0.15 74 1016.8
20260831181056 80 257 1.0 7.0 0.00 0.27 0.15 74 1016.8
20260831180505 80 247 2.0 10.0 0.00 0.27 0.15 72 1016.7
20260831180005 81 200 4.0 10.0 0.00 0.27 0.15 71 1016.6
20260831175513 81 360 2.0 8.0 0.00 0.27 0.15 72 1016.6
20260831175027 81 360 2.0 8.0 0.00 0.27 0.15 71 1016.7
20260831174532 81 254 3.0 9.0 0.00 0.27 0.15 69 1016.6
20260831174009 82 360 4.0 9.0 0.00 0.27 0.15 69 1016.6
20260831173555 82 360 3.0 8.0 0.00 0.27 0.15 70 1016.7
20260831173003 82 257 4.0 9.0 0.00 0.27 0.15 71 1016.7
20260831172507 81 244 3.0 11.0 0.00 0.27 0.15 71 1016.6
20260831172019 81 360 4.0 11.0 0.00 0.27 0.15 71 1016.6
20260831171521 80 220 2.0 10.0 0.00 0.27 0.15 73 1016.7
20260831171007 80 360 5.0 10.0 0.00 0.27 0.15 72 1016.8
20260831170555 80 206 1.0 9.0 0.00 0.27 0.15 74 1016.7
20260831170001 80 198 4.0 10.0 0.00 0.28 0.15 74 1016.8
20260831165508 79 224 5.0 10.0 0.00 0.28 0.15 73 1016.8
20260831165050 79 270 2.0 10.0 0.00 0.28 0.15 74 1016.9
20260831164554 79 224 6.0 10.0 0.00 0.28 0.15 73 1016.9
20260831164001 79 360 4.0 9.0 0.00 0.28 0.15 75 1017.0
20260831163519 79 235 3.0 11.0 0.00 0.28 0.15 74 1017.0
20260831163024 79 226 4.0 11.0 0.00 0.28 0.15 75 1017.0
20260831162526 79 244 3.0 8.0 0.00 0.28 0.15 76 1017.0
20260831162031 78 230 2.0 9.0 0.00 0.28 0.15 77 1017.0
20260831161533 78 245 3.0 9.0 0.00 0.28 0.15 77 1016.9
20260831161042 77 360 1.0 8.0 0.00 0.28 0.15 79 1016.9
20260831160548 77 194 1.0 6.0 0.00 0.28 0.15 80 1017.0
20260831160056 76 215 1.0 6.0 0.00 0.28 0.15 81 1017.1
20260831155557 76 211 2.0 9.0 0.00 0.28 0.15 80 1017.1
20260831155005 75 231 4.0 10.0 0.00 0.28 0.15 80 1017.2
20260831154555 75 198 2.0 10.0 0.00 0.28 0.15 81 1017.3
20260831154005 75 177 2.0 4.0 0.00 0.28 0.15 82 1017.2
20260831153523 74 240 2.0 5.0 0.00 0.28 0.15 82 1017.2
20260831153100 74 180 1.0 6.0 0.00 0.28 0.15 82 1017.2
20260831152508 74 189 1.0 5.0 0.00 0.28 0.15 81 1017.1
20260831152024 74 150 2.0 6.0 0.00 0.28 0.15 82 1017.1
20260831151522 74 184 2.0 7.0 0.00 0.28 0.15 81 1017.2
20260831151035 74 181 3.0 7.0 0.00 0.28 0.15 81 1017.2
20260831150544 74 194 2.0 8.0 0.00 0.28 0.15 82 1017.1
20260831150050 73 145 3.0 8.0 0.00 0.28 0.15 82 1017.0
20260831145556 73 209 2.0 7.0 0.00 0.28 0.15 82 1016.9
20260831145103 73 98 3.0 6.0 0.00 0.28 0.15 82 1016.8
20260831144527 73 201 2.0 5.0 0.00 0.28 0.15 82 1017.0
20260831144024 72 180 2.0 6.0 0.00 0.28 0.15 82 1016.9
20260831143515 72 159 1.0 9.0 0.00 0.28 0.15 82 1016.9
20260831143030 72 178 2.0 9.0 0.00 0.28 0.15 82 1016.9
20260831142528 72 167 3.0 7.0 0.00 0.28 0.15 81 1016.8
20260831142030 72 136 3.0 7.0 0.00 0.28 0.15 82 1016.7
20260831141514 72 131 3.0 8.0 0.00 0.28 0.15 82 1016.7
20260831141024 71 136 3.0 8.0 0.00 0.28 0.15 83 1016.8
20260831140532 71 132 3.0 10.0 0.00 0.28 0.15 83 1016.7
20260831140038 71 169 3.0 10.0 0.00 0.28 0.15 82 1016.8
20260831135546 71 185 2.0 10.0 0.00 0.28 0.15 83 1016.6
20260831135026 71 196 2.0 7.0 0.00 0.28 0.15 82 1016.5
20260831134527 70 204 4.0 12.0 0.00 0.28 0.15 82 1016.7
20260831134004 70 153 3.0 11.0 0.00 0.28 0.15 82 1016.8
20260831133511 70 130 3.0 9.0 0.00 0.28 0.15 82 1016.9
20260831133040 70 183 3.0 9.0 0.00 0.28 0.15 82 1016.9
20260831132544 70 156 3.0 8.0 0.00 0.28 0.15 82 1016.8
20260831132039 70 163 4.0 8.0 0.00 0.28 0.15 82 1016.8
20260831131547 70 136 3.0 7.0 0.00 0.28 0.15 82 1016.8
20260831131058 70 200 3.0 10.0 0.00 0.28 0.15 83 1017.0
20260831130544 69 181 3.0 12.0 0.00 0.28 0.15 83 1017.0
20260831130054 69 178 5.0 8.0 0.00 0.28 0.15 83 1017.2
20260831125602 69 151 3.0 12.0 0.00 0.28 0.15 83 1017.2
20260831125003 69 142 4.0 12.0 0.00 0.28 0.15 82 1017.0
20260831124517 69 201 4.0 9.0 0.00 0.28 0.15 82 1016.9
20260831124027 69 184 3.0 12.0 0.00 0.28 0.15 82 1016.9
20260831123536 69 127 5.0 12.0 0.00 0.28 0.15 82 1016.8
20260831123038 69 133 4.0 9.0 0.00 0.28 0.15 82 1016.9
20260831122540 69 156 3.0 9.0 0.00 0.28 0.15 83 1016.9
20260831122048 69 165 4.0 9.0 0.00 0.28 0.15 83 1016.7
20260831121553 69 173 4.0 12.0 0.01 0.28 0.15 84 1016.7
20260831121040 69 193 4.0 12.0 0.01 0.28 0.15 84 1016.8
20260831120546 69 192 4.0 10.0 0.01 0.28 0.15 85 1016.8
20260831120040 68 119 3.0 10.0 0.01 0.28 0.15 85 1016.6
20260831115548 68 138 3.0 10.0 0.01 0.28 0.15 85 1016.5
20260831115050 68 165 3.0 7.0 0.01 0.28 0.15 86 1016.6
20260831114557 68 148 2.0 7.0 0.01 0.28 0.15 86 1016.7
20260831114047 68 149 3.0 7.0 0.01 0.28 0.15 87 1016.7
20260831113552 67 146 2.0 5.0 0.01 0.28 0.15 87 1016.7
20260831113100 67 166 3.0 7.0 0.01 0.28 0.15 88 1016.6
20260831112506 67 141 3.0 7.0 0.01 0.28 0.15 88 1016.7
20260831112014 67 151 2.0 5.0 0.00 0.28 0.15 88 1016.8
20260831111526 66 167 2.0 7.0 0.00 0.28 0.14 88 1017.0
20260831111036 66 182 2.0 7.0 0.00 0.28 0.14 88 1017.1
20260831110547 66 174 3.0 6.0 0.00 0.28 0.14 88 1017.3
20260831110134 66 158 2.0 8.0 0.01 0.28 0.14 88 1017.3
20260831105538 66 145 2.0 8.0 0.02 0.28 0.14 88 1017.0
20260831105048 66 168 2.0 7.0 0.02 0.28 0.14 89 1016.9
20260831104554 66 160 2.0 7.0 0.02 0.28 0.14 89 1016.9
20260831104106 66 150 3.0 7.0 0.02 0.28 0.14 89 1016.9
20260831103508 66 193 3.0 7.0 0.02 0.28 0.14 90 1016.9
20260831103022 65 184 3.0 7.0 0.02 0.28 0.14 90 1016.8
20260831102524 65 130 2.0 5.0 0.02 0.28 0.14 91 1016.8
20260831102034 65 157 3.0 5.0 0.02 0.28 0.14 91 1016.9
20260831101545 65 125 0.0 4.0 0.02 0.28 0.14 92 1016.8
20260831101054 65 121 1.0 4.0 0.02 0.28 0.14 92 1016.9
20260831100505 65 122 2.0 4.0 0.02 0.28 0.14 92 1017.1
20260831100011 65 192 1.0 5.0 0.00 0.26 0.13 92 1017.3
20260831095518 65 192 1.0 5.0 0.00 0.26 0.12 92 1017.3
20260831095024 65 184 1.0 4.0 0.00 0.26 0.12 91 1017.4
20260831094538 65 132 0.0 2.0 0.01 0.26 0.12 91 1017.2
20260831094038 65 132 0.0 2.0 0.02 0.26 0.12 91 1017.2
20260831093519 65 132 0.0 3.0 0.02 0.26 0.12 91 1017.0
20260831093032 65 132 1.0 3.0 0.02 0.26 0.12 91 1017.0
20260831092540 65 134 0.0 3.0 0.02 0.26 0.12 91 1017.0
20260831092026 65 134 1.0 3.0 0.02 0.26 0.12 91 1017.0
20260831091534 65 143 1.0 3.0 0.02 0.26 0.12 91 1017.0
20260831091035 65 143 1.0 3.0 0.02 0.26 0.12 90 1017.2
20260831090545 65 143 1.0 3.0 0.02 0.26 0.12 90 1017.2
20260831090046 66 166 1.0 4.0 0.02 0.26 0.12 90 1017.2
20260831085553 66 167 2.0 3.0 0.02 0.26 0.12 90 1017.2
20260831085036 66 167 1.0 4.0 0.02 0.26 0.12 90 1017.4
20260831084547 66 173 0.0 4.0 0.01 0.25 0.11 90 1017.6
20260831084015 66 144 1.0 4.0 0.00 0.24 0.10 90 1017.6
20260831083503 66 131 0.0 3.0 0.00 0.24 0.10 90 1017.5
20260831083020 66 131 0.0 3.0 0.00 0.24 0.10 90 1017.4
20260831082522 66 132 1.0 3.0 0.00 0.24 0.10 90 1017.3
20260831082004 66 132 1.0 3.0 0.00 0.24 0.10 90 1017.4
20260831081521 66 132 0.0 3.0 0.00 0.24 0.10 90 1017.4
20260831081031 66 132 2.0 3.0 0.00 0.24 0.10 90 1017.4
20260831080536 66 132 1.0 4.0 0.00 0.24 0.10 90 1017.4
20260831080043 66 132 1.0 4.0 0.00 0.24 0.10 91 1017.5
20260831075549 66 133 2.0 3.0 0.01 0.24 0.10 91 1017.5
20260831075056 66 133 2.0 3.0 0.01 0.24 0.10 91 1017.5
20260831074601 66 157 1.0 3.0 0.01 0.24 0.10 90 1017.6
20260831074006 66 157 1.0 3.0 0.01 0.24 0.10 90 1017.7
20260831073514 66 158 1.0 5.0 0.01 0.24 0.10 90 1017.8
20260831073006 66 158 1.0 6.0 0.01 0.24 0.10 90 1017.9
20260831072515 66 161 1.0 6.0 0.01 0.24 0.10 91 1017.9
20260831072021 66 155 2.0 11.0 0.01 0.24 0.10 91 1018.0
20260831071523 65 195 3.0 11.0 0.01 0.24 0.10 91 1017.9
20260831071017 65 132 2.0 5.0 0.01 0.24 0.10 91 1017.8
20260831070508 65 173 1.0 3.0 0.02 0.24 0.10 91 1018.0
20260831070048 65 182 1.0 5.0 0.02 0.24 0.10 91 1018.2
20260831065558 65 196 1.0 5.0 0.01 0.23 0.09 91 1018.3
20260831065003 65 188 1.0 6.0 0.01 0.23 0.09 91 1018.4
20260831064529 65 173 1.0 8.0 0.01 0.23 0.09 91 1018.3
20260831064028 65 199 2.0 9.0 0.01 0.23 0.09 91 1018.4
20260831063539 65 178 3.0 9.0 0.01 0.23 0.09 92 1018.3
20260831063049 65 169 2.0 7.0 0.01 0.23 0.09 92 1018.2
20260831062552 65 201 2.0 6.0 0.01 0.23 0.09 92 1018.3
20260831062059 65 197 1.0 6.0 0.01 0.23 0.09 92 1018.4
20260831061509 65 168 2.0 4.0 0.02 0.23 0.09 92 1018.3
20260831061059 65 164 2.0 4.0 0.02 0.23 0.09 92 1018.4
20260831060507 65 164 2.0 4.0 0.02 0.22 0.08 92 1018.4
20260831060018 65 139 2.0 4.0 0.02 0.22 0.08 92 1018.2
20260831055515 65 174 1.0 7.0 0.03 0.22 0.08 93 1018.4
20260831055031 65 140 2.0 7.0 0.04 0.22 0.08 93 1018.3
20260831054540 65 145 2.0 6.0 0.04 0.22 0.08 93 1018.3
20260831054046 65 165 1.0 6.0 0.06 0.22 0.08 93 1018.4
20260831053532 65 201 1.0 9.0 0.06 0.22 0.08 93 1018.5
20260831053040 65 165 2.0 9.0 0.07 0.22 0.08 93 1018.5
20260831052543 65 198 0.0 4.0 0.07 0.22 0.08 93 1018.3
20260831052031 65 198 0.0 5.0 0.07 0.22 0.08 93 1018.5
20260831051534 65 198 1.0 5.0 0.06 0.21 0.07 93 1018.6
20260831051043 65 249 1.0 3.0 0.06 0.20 0.07 93 1018.6
20260831050549 65 211 0.0 4.0 0.06 0.20 0.06 93 1018.5
20260831050135 65 211 1.0 4.0 0.06 0.20 0.06 93 1018.6
20260831045507 65 193 0.0 4.0 0.05 0.19 0.05 93 1018.6
20260831045025 65 196 0.0 4.0 0.06 0.18 0.04 93 1018.5
20260831044527 65 204 0.0 3.0 0.05 0.17 0.04 93 1018.7
20260831044020 65 204 0.0 3.0 0.05 0.16 0.02 93 1018.7
20260831043511 65 212 0.0 2.0 0.04 0.15 0.01 93 1018.7
20260831043020 65 215 0.0 0.0 0.05 0.15 0.01 93 1018.5
20260831042527 65 215 0.0 0.0 0.05 0.15 0.01 93 1018.5
20260831042035 65 215 0.0 0.0 0.06 0.15 0.01 93 1018.5
20260831041517 66 215 0.0 0.0 0.06 0.15 0.01 93 1018.5
20260831041031 66 215 0.0 0.0 0.05 0.14 0.00 93 1018.6
20260831040534 66 215 0.0 2.0 0.05 0.14 0.00 93 1018.7
20260831040040 66 215 0.0 3.0 0.06 0.14 0.14 93 1019.0
20260831035508 66 360 0.0 3.0 0.05 0.13 0.14 93 1019.0
20260831035052 66 185 0.0 3.0 0.04 0.12 0.12 93 1018.9
20260831034600 66 184 1.0 4.0 0.04 0.12 0.12 93 1018.8
20260831034502 66 184 0.0 4.0 0.04 0.12 0.12 93 1018.8
20260831034109 66 184 1.0 4.0 0.03 0.11 0.11 93 1018.7
20260831033552 66 206 0.0 4.0 0.03 0.11 0.11 93 1018.8
20260831033036 66 189 1.0 3.0 0.02 0.10 0.10 93 1018.8
20260831032542 66 199 1.0 3.0 0.02 0.10 0.10 93 1018.9
20260831032055 66 198 0.0 3.0 0.01 0.09 0.09 93 1019.0
20260831031556 66 198 0.0 5.0 0.01 0.09 0.09 93 1018.9
20260831031004 66 360 1.0 5.0 0.01 0.09 0.09 93 1018.9
20260831030510 66 198 0.0 0.0 0.00 0.08 0.09 93 1018.9
20260831030038 66 197 0.0 0.0 0.00 0.08 0.08 93 1019.0
20260831025556 66 197 0.0 0.0 0.00 0.08 0.08 93 1019.0
20260831025004 66 197 0.0 0.0 0.00 0.08 0.08 93 1019.1
20260831024518 66 197 0.0 0.0 0.00 0.08 0.08 93 1019.1
20260831024028 66 197 0.0 0.0 0.00 0.08 0.08 93 1019.2
20260831023522 66 197 0.0 0.0 0.00 0.08 0.08 93 1019.1
20260831023100 66 197 0.0 0.0 0.00 0.08 0.08 93 1019.1
20260831022508 67 197 0.0 0.0 0.00 0.08 0.08 93 1019.1
20260831022017 67 197 0.0 0.0 0.00 0.08 0.08 93 1019.2
20260831021520 67 197 0.0 0.0 0.00 0.08 0.08 93 1019.1
20260831021010 67 197 0.0 0.0 0.00 0.08 0.08 93 1019.1
20260831020508 67 197 0.0 0.0 0.00 0.08 0.08 93 1019.2
20260831020014 67 197 0.0 0.0 0.01 0.08 0.08 93 1019.2
20260831015515 67 197 0.0 0.0 0.01 0.08 0.08 93 1019.2
20260831015029 67 197 0.0 0.0 0.01 0.08 0.08 93 1019.3
20260831014547 67 197 0.0 0.0 0.02 0.08 0.08 93 1019.5
20260831014032 67 197 0.0 0.0 0.02 0.08 0.08 93 1019.5
20260831013540 67 197 0.0 0.0 0.02 0.08 0.08 93 1019.5
20260831013055 67 197 0.0 0.0 0.02 0.08 0.08 93 1019.5
20260831012601 67 197 0.0 0.0 0.02 0.08 0.08 93 1019.5
20260831012504 67 197 0.0 0.0 0.02 0.08 0.08 93 1019.5
20260831012058 67 197 0.0 0.0 0.02 0.08 0.08 93 1019.4
20260831011507 67 198 0.0 0.0 0.02 0.08 0.08 93 1019.5
20260831011024 67 198 0.0 0.0 0.02 0.08 0.08 93 1019.5
20260831010527 67 198 0.0 0.0 0.02 0.08 0.08 93 1019.5
20260831010031 66 198 0.0 0.0 0.01 0.07 0.07 93 1019.5
20260831005517 66 198 0.0 0.0 0.01 0.07 0.07 93 1019.4
20260831005032 67 198 0.0 0.0 0.01 0.07 0.07 93 1019.2
20260831004536 67 198 0.0 0.0 0.00 0.06 0.07 92 1019.2
20260831004044 67 198 0.0 0.0 0.00 0.06 0.06 92 1019.0
20260831003548 67 198 0.0 0.0 0.00 0.06 0.06 92 1019.0
20260831003058 67 198 0.0 0.0 0.00 0.06 0.06 92 1018.9
20260831002505 67 198 0.0 0.0 0.00 0.06 0.06 92 1018.8
20260831002016 67 198 0.0 0.0 0.00 0.06 0.06 92 1018.7
20260831001511 67 198 0.0 0.0 0.00 0.06 0.06 92 1018.7
20260831001026 67 198 0.0 0.0 0.00 0.06 0.06 92 1018.7
20260831000526 67 198 0.0 0.0 0.00 0.06 0.06 92 1018.6
20260831000053 68 198 0.0 0.0 0.00 0.06 0.06 92 1018.6
20260830235545 68 198 0.0 0.0 0.00 0.06 0.06 92 1018.5
20260830235056 68 198 0.0 0.0 0.00 0.06 0.06 92 1018.5
20260830234511 68 198 0.0 0.0 0.00 0.06 0.06 92 1018.4
20260830234021 68 198 0.0 0.0 0.00 0.06 0.06 92 1018.4
20260830233519 68 198 0.0 0.0 0.00 0.06 0.06 92 1018.3
20260830233048 68 198 0.0 0.0 0.00 0.06 0.06 91 1018.3
20260830232536 69 198 0.0 0.0 0.00 0.06 0.06 92 1018.2
20260830232039 69 198 0.0 0.0 0.00 0.06 0.06 92 1018.2
20260830231533 69 198 0.0 0.0 0.00 0.06 0.06 92 1018.0
20260830231040 69 198 0.0 0.0 0.00 0.06 0.06 92 1017.9
20260830230549 69 198 0.0 0.0 0.00 0.06 0.06 92 1018.0
20260830230054 69 198 0.0 0.0 0.00 0.06 0.06 92 1018.0
20260830225541 69 198 0.0 0.0 0.00 0.06 0.06 91 1017.9
20260830225033 69 198 0.0 0.0 0.00 0.06 0.06 91 1017.8
20260830224518 69 198 0.0 0.0 0.00 0.06 0.06 91 1017.9
20260830224022 69 198 0.0 0.0 0.00 0.06 0.06 91 1017.9
20260830223558 69 198 0.0 0.0 0.00 0.06 0.06 92 1018.0
20260830223102 69 198 0.0 0.0 0.00 0.06 0.06 91 1018.1
20260830222509 69 198 0.0 0.0 0.01 0.06 0.06 91 1018.0
20260830222013 69 198 0.0 0.0 0.01 0.06 0.06 91 1017.9
20260830221524 69 198 0.0 0.0 0.01 0.06 0.06 91 1017.9
20260830221007 69 198 0.0 0.0 0.02 0.06 0.06 91 1018.0
20260830220522 69 198 0.0 0.0 0.02 0.06 0.06 91 1017.8
20260830220052 68 198 0.0 0.0 0.03 0.06 0.06 90 1017.7
20260830215509 68 198 0.0 0.0 0.03 0.06 0.06 90 1017.6
20260830215018 68 198 0.0 1.0 0.03 0.06 0.06 90 1017.5
20260830214521 68 198 0.0 3.0 0.03 0.06 0.06 89 1017.4
20260830214001 68 198 0.0 3.0 0.03 0.06 0.06 89 1017.4
20260830213509 68 196 0.0 2.0 0.03 0.06 0.06 90 1017.5
20260830213059 68 196 0.0 2.0 0.03 0.06 0.06 89 1017.5
20260830212507 68 196 0.0 2.0 0.03 0.05 0.05 89 1017.6
20260830212057 68 196 0.0 2.0 0.03 0.05 0.05 89 1017.6
20260830211510 68 196 0.0 4.0 0.03 0.05 0.05 89 1017.7
20260830211053 68 196 0.0 4.0 0.02 0.04 0.04 88 1017.8
20260830210520 68 196 0.0 4.0 0.02 0.04 0.04 88 1017.9
20260830210100 68 196 0.0 4.0 0.01 0.03 0.04 88 1017.9
20260830205509 68 196 1.0 4.0 0.01 0.03 0.03 88 1017.9
20260830205019 68 195 2.0 4.0 0.01 0.03 0.03 87 1018.1
20260830204523 68 210 1.0 5.0 0.01 0.03 0.03 87 1018.1
20260830204017 68 210 1.0 5.0 0.01 0.03 0.03 86 1018.3
20260830203511 68 228 0.0 3.0 0.01 0.03 0.03 86 1018.4
20260830203025 68 232 0.0 1.0 0.01 0.03 0.03 85 1018.5
20260830202531 68 232 0.0 0.0 0.00 0.02 0.02 84 1018.6
20260830202037 68 232 0.0 4.0 0.00 0.02 0.02 82 1018.6
20260830201556 68 232 1.0 5.0 0.00 0.02 0.02 80 1018.7
20260830201050 69 234 1.0 6.0 0.00 0.02 0.02 79 1018.7
20260830200533 69 231 2.0 10.0 0.00 0.02 0.02 78 1018.7
20260830200043 69 235 4.0 11.0 0.00 0.02 0.02 76 1018.7
20260830195519 70 360 5.0 11.0 0.00 0.02 0.02 79 1018.8
20260830195033 70 360 3.0 13.0 0.00 0.02 0.02 82 1018.8
20260830194539 70 236 4.0 13.0 0.00 0.02 0.02 83 1018.7
20260830194046 70 360 3.0 11.0 0.00 0.02 0.02 85 1018.7
20260830193533 71 252 2.0 6.0 0.00 0.02 0.02 86 1018.7
20260830193041 71 360 2.0 6.0 0.00 0.02 0.02 86 1018.7
20260830192544 71 226 3.0 6.0 0.00 0.02 0.02 86 1018.6
20260830192053 71 241 1.0 4.0 0.00 0.02 0.02 87 1018.7